User: anonymous   Login
Location: Bermeries
(50.2863°N, 3.7551°E)
Time: 18:00:47
(UTC+00:00)
Language:

USA 267 - Orbit

View from above orbital plane
View from above orbital plane
View from above satellite
View from above satellite

Ground track
Ground track

The orbit data is extracted from the following two-line orbital elements,

1 41334U 16010A   24142.05581943 0.00000100  00000-0  17900-3 0    05
2 41334 123.0024  16.4856 0005023  89.7051 270.2949 13.41455398    05
Epoch (UTC): 21 May 2024 01:20:22
Eccentricity: 0.0005023
inclination: 123.0024°
perigee height: 1100 km
apogee height: 1107 km
right ascension of ascending node: 16.4856°
argument of perigee: 89.7051°
revolutions per day: 13.41455398
mean anomaly at epoch: 270.2949°
orbit number at epoch: 0

The dashed part of the orbit path shows where the satellite is in the earth's shadow,  

DLR